Regional Weather Roundup
Issued by NWS

Home | Current Version | Previous Version | Graphics & Text | Print | Product List | Glossary On
Versions: 1 2 3 4 5 6 7 8 9 10 11 12 13 14 15 16 17 18 19 20 21 22 23 24 25 26 27 28 29 30 31 32 33 34 35 36 37 38 39 40 41 42 43 44 45 46 47 48 49 50
000
ASUS43 KLSX 261207
RWRMO

WEATHER SUMMARY FOR MISSOURI
NATIONAL WEATHER SERVICE SPRINGFIELD MO
700 AM CDT SUN MAR 26 2017

NOTE: "FAIR" INDICATES FEW OR NO CLOUDS BELOW 12,000 FEET WITH NO
       SIGNIFICANT WEATHER AND/OR OBSTRUCTIONS TO VISIBILITY.
       CURRENT SKY AND/OR WEATHER CONDITIONS ARE NOT AVAILABLE FOR
       CHILLICOTHE AND FARMINGTON.

MOZ001>031-035>038-043-044-053-054-261300-
...NORTHERN AND WESTERN MISSOURI...

CITY           SKY/WX    TMP DP  RH WIND       PRES   REMARKS
KANSAS CTY INT CLOUDY    43  41  93 W6        29.90R
6HR MIN TEMP:  42; 6HR MAX TEMP:  44;

KANSAS C DTWN  CLOUDY    45  41  86 W6        29.90R
6HR MIN TEMP:  45; 6HR MAX TEMP:  47;

LEE`S SUMMIT   CLOUDY    44  42  93 W5        29.90R
6HR MIN TEMP:  44; 6HR MAX TEMP:  46;

ST JOSEPH      CLOUDY    43  42  97 NW8       29.90R
6HR MIN TEMP:  43; 6HR MAX TEMP:  44; 6HR PCP: TRACE;

CHILLICOTHE      N/A     43  42  97 W6        29.89R
6HR MIN TEMP:  43; 6HR MAX TEMP:  45;

KIRKSVILLE     CLOUDY    45  44  97 W12       29.84R
6HR MIN TEMP:  45; 6HR MAX TEMP:  47;


$$
MOZ066>068-077>081-088>096-101>105-261300-
...SOUTHWEST MISSOURI...

CITY           SKY/WX    TMP DP  RH WIND       PRES   REMARKS
SPRINGFIELD    CLOUDY    46  44  93 W7        29.92R
6HR MIN TEMP:  46; 6HR MAX TEMP:  47;

JOPLIN         MOCLDY    46  45  96 CALM      29.92F
6HR MIN TEMP:  46; 6HR MAX TEMP:  47;

BRANSON        CLOUDY    46  45  93 W5        29.94S

$$
MOZ032>034-039>042-045>050-055>058-069>072-261300-
...CENTRAL MISSOURI...

CITY           SKY/WX    TMP DP  RH WIND       PRES   REMARKS
COLUMBIA       CLOUDY    48  48 100 W9        29.87R FOG
6HR MIN TEMP:  48; 6HR MAX TEMP:  50; 6HR PCP:  0.01;

JEFFERSON CITY CLOUDY    51  48  89 W8        29.88R FOG
6HR MIN TEMP:  51; 6HR MAX TEMP:  52; 6HR PCP: TRACE;

ROLLA          CLOUDY    47  46  97 SW10      29.88R
6HR MIN TEMP:  47; 6HR MAX TEMP:  48;

SEDALIA        CLOUDY    48  50 100 W9        29.90R FOG
6HR MIN TEMP:  48; 6HR MAX TEMP:  50;

WHITEMAN AFB   CLOUDY    46  46 100 W9        29.89R
WARRENSBURG    CLOUDY    45  43  93 W5        29.90S
OSAGE BEACH    CLOUDY   N/A N/A N/A SW6       29.91R HAZE

$$
MOZ051-052-059>065-261300-
...EAST CENTRAL MISSOURI...

CITY           SKY/WX    TMP DP  RH WIND       PRES   REMARKS
ST LOUIS INTL  CLOUDY    53  47  79 SW8       29.86R
6HR MIN TEMP:  53; 6HR MAX TEMP:  56;

SPIRIT OF STL  CLOUDY    51  48  89 SW7       29.86S
6HR MIN TEMP:  51; 6HR MAX TEMP:  54;

ST CHARLES     CLOUDY    51  49  92 SW7       29.86R
6HR MIN TEMP:  51; 6HR MAX TEMP:  55;


$$
MOZ072>076-082>087-097>100-106>115-261300-
...SOUTH CENTRAL AND SOUTHEAST MISSOURI...

CITY           SKY/WX    TMP DP  RH WIND       PRES   REMARKS
CAPE GIRARDEAU CLOUDY    52  46  80 SW6       29.91R
6HR MIN TEMP:  52; 6HR MAX TEMP:  57;

FARMINGTON     CLOUDY    49  45  86 SW6       29.91R
6HR MIN TEMP:  48; 6HR MAX TEMP:  54; 6HR PCP: TRACE;

POPLAR BLUFF   CLOUDY    52  48  86 SW6       29.92S
6HR MIN TEMP:  52; 6HR MAX TEMP:  57;

WEST PLAINS    CLOUDY    48  45  89 SW5       29.92R
6HR MIN TEMP:  48; 6HR MAX TEMP:  49;


$$




USA.gov is the U.S. government's official web portal to all federal, state and local government web resources and services.